Time,TemperatureF,DewpointF,PressureIn,WindDirection,WindDirectionDegrees,WindSpeedMPH,WindSpeedGustMPH,Humidity,HourlyPrecipIn,Conditions,Clouds,dailyrainin,SolarRadiationWatts/m^2,SoftwareType,DateUTC
2013-01-10 00:01:00,38.0,11.0,-100.00,NW,311,5.0,14.0,33,0.00,,,0.00,0.000000,,2013-01-10 07:01:00,
2013-01-10 00:22:00,38.0,11.0,-100.00,NW,311,5.0,14.0,33,0.00,,,0.00,0.000000,,2013-01-10 07:22:00,
2013-01-10 00:32:00,38.0,11.0,-100.00,NW,311,5.0,14.0,33,0.00,,,0.00,0.000000,,2013-01-10 07:32:00,
2013-01-10 00:42:00,38.0,11.0,-100.00,NW,311,5.0,14.0,33,0.00,,,0.00,0.000000,,2013-01-10 07:42:00,
2013-01-10 00:52:00,38.0,11.0,-100.00,NW,311,5.0,14.0,33,0.00,,,0.00,0.000000,,2013-01-10 07:52:00,
2013-01-10 01:01:00,36.0,11.0,-100.00,NW,316,4.0,8.0,35,0.00,,,0.00,0.000000,,2013-01-10 08:01:00,
2013-01-10 01:33:00,36.0,11.0,-100.00,NW,316,4.0,8.0,35,0.00,,,0.00,0.000000,,2013-01-10 08:33:00,
2013-01-10 01:42:00,36.0,11.0,-100.00,NW,316,4.0,8.0,35,0.00,,,0.00,0.000000,,2013-01-10 08:42:00,
2013-01-10 01:53:00,36.0,11.0,-100.00,NW,316,4.0,8.0,35,0.00,,,0.00,0.000000,,2013-01-10 08:53:00,
2013-01-10 02:01:00,36.0,10.0,-100.00,WNW,301,3.0,8.0,33,0.00,,,0.00,0.000000,,2013-01-10 09:01:00,
2013-01-10 02:32:00,36.0,10.0,-100.00,WNW,301,3.0,8.0,33,0.00,,,0.00,0.000000,,2013-01-10 09:32:00,
2013-01-10 02:43:00,36.0,10.0,-100.00,WNW,301,3.0,8.0,33,0.00,,,0.00,0.000000,,2013-01-10 09:43:00,
2013-01-10 02:52:00,36.0,10.0,-100.00,WNW,301,3.0,8.0,33,0.00,,,0.00,0.000000,,2013-01-10 09:52:00,
2013-01-10 03:01:00,37.0,12.0,-100.00,NNW,328,5.0,6.0,35,0.00,,,0.00,0.000000,,2013-01-10 10:01:00,
2013-01-10 03:33:00,37.0,12.0,-100.00,NNW,328,5.0,6.0,35,0.00,,,0.00,0.000000,,2013-01-10 10:33:00,
2013-01-10 03:42:00,37.0,12.0,-100.00,NNW,328,5.0,6.0,35,0.00,,,0.00,0.000000,,2013-01-10 10:42:00,
2013-01-10 03:52:00,37.0,12.0,-100.00,NNW,328,5.0,6.0,35,0.00,,,0.00,0.000000,,2013-01-10 10:52:00,
2013-01-10 04:01:00,35.0,11.0,-100.00,NNW,346,4.0,6.0,37,0.00,,,0.00,0.000000,,2013-01-10 11:01:00,
2013-01-10 04:23:00,35.0,11.0,-100.00,NNW,346,4.0,6.0,37,0.00,,,0.00,0.000000,,2013-01-10 11:23:00,
2013-01-10 04:33:00,35.0,11.0,-100.00,NNW,346,4.0,6.0,37,0.00,,,0.00,0.000000,,2013-01-10 11:33:00,
2013-01-10 04:43:00,35.0,11.0,-100.00,NNW,346,4.0,6.0,37,0.00,,,0.00,0.000000,,2013-01-10 11:43:00,
2013-01-10 04:53:00,35.0,11.0,-100.00,NNW,346,4.0,6.0,37,0.00,,,0.00,0.000000,,2013-01-10 11:53:00,
2013-01-10 07:01:00,34.0,12.0,-100.00,North,8,3.0,10.0,40,-99.99,,,0.00,1.000000,,2013-01-10 14:01:00,
2013-01-10 07:23:00,34.0,12.0,-100.00,North,8,3.0,10.0,40,-99.99,,,0.00,1.000000,,2013-01-10 14:23:00,
2013-01-10 07:33:00,34.0,12.0,-100.00,North,8,3.0,10.0,40,-99.99,,,0.00,1.000000,,2013-01-10 14:33:00,
2013-01-10 07:43:00,34.0,12.0,-100.00,North,8,3.0,10.0,40,-99.99,,,0.00,1.000000,,2013-01-10 14:43:00,
2013-01-10 07:53:00,34.0,12.0,-100.00,North,8,3.0,10.0,40,-99.99,,,0.00,1.000000,,2013-01-10 14:53:00,
2013-01-10 08:01:00,37.0,16.0,-100.00,NNW,347,4.0,7.0,42,0.00,,,0.00,37.000000,,2013-01-10 15:01:00,
2013-01-10 08:33:00,37.0,16.0,-100.00,NNW,347,4.0,7.0,42,0.00,,,0.00,37.000000,,2013-01-10 15:33:00,
2013-01-10 08:43:00,37.0,16.0,-100.00,NNW,347,4.0,7.0,42,0.00,,,0.00,37.000000,,2013-01-10 15:43:00,
2013-01-10 08:53:00,37.0,16.0,-100.00,NNW,347,4.0,7.0,42,0.00,,,0.00,37.000000,,2013-01-10 15:53:00,
2013-01-10 09:01:00,44.0,13.0,-100.00,WSW,253,7.0,14.0,28,0.00,,,0.00,238.000000,,2013-01-10 16:01:00,
2013-01-10 09:33:00,44.0,13.0,-100.00,WSW,253,7.0,14.0,28,0.00,,,0.00,238.000000,,2013-01-10 16:33:00,
2013-01-10 09:43:00,44.0,13.0,-100.00,WSW,253,7.0,14.0,28,0.00,,,0.00,238.000000,,2013-01-10 16:43:00,
2013-01-10 09:53:00,44.0,13.0,-100.00,WSW,253,7.0,14.0,28,0.00,,,0.00,238.000000,,2013-01-10 16:53:00,
2013-01-10 10:01:00,45.0,13.0,-100.00,WSW,258,10.0,19.0,27,0.00,,,0.00,411.000000,,2013-01-10 17:01:00,
2013-01-10 10:33:00,45.0,13.0,-100.00,WSW,258,10.0,19.0,27,0.00,,,0.00,411.000000,,2013-01-10 17:33:00,
2013-01-10 10:43:00,45.0,13.0,-100.00,WSW,258,10.0,19.0,27,0.00,,,0.00,411.000000,,2013-01-10 17:43:00,
2013-01-10 10:53:00,45.0,13.0,-100.00,WSW,258,10.0,19.0,27,0.00,,,0.00,411.000000,,2013-01-10 17:53:00,
2013-01-10 11:01:00,47.0,16.0,-100.00,West,262,10.0,18.0,28,0.00,,,0.00,563.000000,,2013-01-10 18:01:00,
2013-01-10 11:23:00,47.0,16.0,-100.00,West,262,10.0,18.0,28,0.00,,,0.00,563.000000,,2013-01-10 18:23:00,
2013-01-10 11:33:00,47.0,16.0,-100.00,West,262,10.0,18.0,28,0.00,,,0.00,563.000000,,2013-01-10 18:33:00,
2013-01-10 11:43:00,47.0,16.0,-100.00,West,262,10.0,18.0,28,0.00,,,0.00,563.000000,,2013-01-10 18:43:00,
2013-01-10 11:53:00,47.0,16.0,-100.00,West,262,10.0,18.0,28,0.00,,,0.00,563.000000,,2013-01-10 18:53:00,
2013-01-10 12:01:00,49.0,16.0,-100.00,WSW,254,10.0,21.0,27,0.00,,,-99.99,538.000000,,2013-01-10 19:01:00,
2013-01-10 12:33:00,49.0,16.0,-100.00,WSW,254,10.0,21.0,27,0.00,,,-99.99,538.000000,,2013-01-10 19:33:00,
2013-01-10 12:43:00,49.0,16.0,-100.00,WSW,254,10.0,21.0,27,0.00,,,-99.99,538.000000,,2013-01-10 19:43:00,
2013-01-10 12:53:00,49.0,16.0,-100.00,WSW,254,10.0,21.0,27,0.00,,,-99.99,538.000000,,2013-01-10 19:53:00,
2013-01-10 13:01:00,46.0,13.0,-100.00,WSW,255,7.0,14.0,26,0.00,,,0.00,370.000000,,2013-01-10 20:01:00,
2013-01-10 13:24:00,46.0,13.0,-100.00,WSW,255,7.0,14.0,26,0.00,,,0.00,370.000000,,2013-01-10 20:24:00,
2013-01-10 13:33:00,46.0,13.0,-100.00,WSW,255,7.0,14.0,26,0.00,,,0.00,370.000000,,2013-01-10 20:33:00,
2013-01-10 13:43:00,46.0,13.0,-100.00,WSW,255,7.0,14.0,26,0.00,,,0.00,370.000000,,2013-01-10 20:43:00,
2013-01-10 13:53:00,46.0,13.0,-100.00,WSW,255,7.0,14.0,26,0.00,,,0.00,370.000000,,2013-01-10 20:53:00,
2013-01-10 14:01:00,45.0,19.0,-100.00,WSW,248,7.0,14.0,35,0.00,,,0.00,187.000000,,2013-01-10 21:01:00,
2013-01-10 14:33:00,45.0,19.0,-100.00,WSW,248,7.0,14.0,35,0.00,,,0.00,187.000000,,2013-01-10 21:33:00,
2013-01-10 14:43:00,45.0,19.0,-100.00,WSW,248,7.0,14.0,35,0.00,,,0.00,187.000000,,2013-01-10 21:43:00,
2013-01-10 14:53:00,45.0,19.0,-100.00,WSW,248,7.0,14.0,35,0.00,,,0.00,187.000000,,2013-01-10 21:53:00,
2013-01-10 15:01:00,47.0,23.0,-100.00,West,272,8.0,15.0,39,0.00,,,0.00,252.000000,,2013-01-10 22:01:00,
2013-01-10 15:27:00,47.0,23.0,-100.00,West,272,8.0,15.0,39,0.00,,,0.00,252.000000,,2013-01-10 22:27:00,
2013-01-10 15:34:00,47.0,23.0,-100.00,West,272,8.0,15.0,39,0.00,,,0.00,252.000000,,2013-01-10 22:34:00,
2013-01-10 15:44:00,47.0,23.0,-100.00,West,272,8.0,15.0,39,0.00,,,0.00,252.000000,,2013-01-10 22:44:00,
2013-01-10 16:01:00,49.0,23.0,-100.00,SW,223,7.0,22.0,35,0.00,,,0.00,211.000000,,2013-01-10 23:01:00,
2013-01-10 16:33:00,49.0,23.0,-100.00,SW,223,7.0,22.0,35,0.00,,,0.00,211.000000,,2013-01-10 23:33:00,
2013-01-10 16:43:00,49.0,23.0,-100.00,SW,223,7.0,22.0,35,0.00,,,0.00,211.000000,,2013-01-10 23:43:00,
2013-01-10 16:53:00,49.0,23.0,-100.00,SW,223,7.0,22.0,35,0.00,,,0.00,211.000000,,2013-01-10 23:53:00,
2013-01-10 17:01:00,46.0,16.0,-100.00,South,178,6.0,14.0,29,0.00,,,0.00,50.000000,,2013-01-11 00:01:00,
2013-01-10 17:33:00,46.0,16.0,-100.00,South,178,6.0,14.0,29,0.00,,,0.00,50.000000,,2013-01-11 00:33:00,
2013-01-10 17:43:00,46.0,16.0,-100.00,South,178,6.0,14.0,29,0.00,,,0.00,50.000000,,2013-01-11 00:43:00,
2013-01-10 17:53:00,46.0,16.0,-100.00,South,178,6.0,14.0,29,0.00,,,0.00,50.000000,,2013-01-11 00:53:00,
2013-01-10 18:01:00,45.0,20.0,-100.00,South,175,7.0,13.0,36,0.00,,,0.00,5.000000,,2013-01-11 01:01:00,
2013-01-10 18:34:00,45.0,20.0,-100.00,South,175,7.0,13.0,36,0.00,,,0.00,5.000000,,2013-01-11 01:34:00,
2013-01-10 18:43:00,45.0,20.0,-100.00,South,175,7.0,13.0,36,0.00,,,0.00,5.000000,,2013-01-11 01:43:00,
2013-01-10 18:53:00,45.0,20.0,-100.00,South,175,7.0,13.0,36,0.00,,,0.00,5.000000,,2013-01-11 01:53:00,
2013-01-10 19:01:00,45.0,22.0,-100.00,South,188,7.0,17.0,40,0.00,,,0.00,0.000000,,2013-01-11 02:01:00,
2013-01-10 19:24:00,45.0,22.0,-100.00,South,188,7.0,17.0,40,0.00,,,0.00,0.000000,,2013-01-11 02:24:00,
2013-01-10 19:33:00,45.0,22.0,-100.00,South,188,7.0,17.0,40,0.00,,,0.00,0.000000,,2013-01-11 02:33:00,
2013-01-10 19:43:00,45.0,22.0,-100.00,South,188,7.0,17.0,40,0.00,,,0.00,0.000000,,2013-01-11 02:43:00,
2013-01-10 19:54:00,45.0,22.0,-100.00,South,188,7.0,17.0,40,0.00,,,0.00,0.000000,,2013-01-11 02:54:00,
2013-01-10 20:01:00,47.0,23.0,-100.00,SSW,195,12.0,21.0,38,0.00,,,0.00,0.000000,,2013-01-11 03:01:00,
2013-01-10 20:33:00,47.0,23.0,-100.00,SSW,195,12.0,21.0,38,0.00,,,0.00,0.000000,,2013-01-11 03:33:00,
2013-01-10 20:43:00,47.0,23.0,-100.00,SSW,195,12.0,21.0,38,0.00,,,0.00,0.000000,,2013-01-11 03:43:00,
2013-01-10 20:53:00,47.0,23.0,-100.00,SSW,195,12.0,21.0,38,0.00,,,0.00,0.000000,,2013-01-11 03:53:00,
2013-01-10 21:01:00,47.0,21.0,-100.00,SSW,206,15.0,28.0,35,0.00,,,0.00,0.000000,,2013-01-11 04:01:00,
2013-01-10 21:33:00,47.0,21.0,-100.00,SSW,206,15.0,28.0,35,0.00,,,0.00,0.000000,,2013-01-11 04:33:00,
2013-01-10 21:43:00,47.0,21.0,-100.00,SSW,206,15.0,28.0,35,0.00,,,0.00,0.000000,,2013-01-11 04:43:00,
2013-01-10 21:53:00,47.0,21.0,-100.00,SSW,206,15.0,28.0,35,0.00,,,0.00,0.000000,,2013-01-11 04:53:00,
2013-01-10 22:01:00,46.0,19.0,-100.00,SSW,195,15.0,30.0,34,0.00,,,0.00,0.000000,,2013-01-11 05:01:00,
2013-01-10 22:33:00,46.0,19.0,-100.00,SSW,195,15.0,30.0,34,0.00,,,0.00,0.000000,,2013-01-11 05:33:00,
2013-01-10 22:43:00,46.0,19.0,-100.00,SSW,195,15.0,30.0,34,0.00,,,0.00,0.000000,,2013-01-11 05:43:00,
2013-01-10 22:53:00,46.0,19.0,-100.00,SSW,195,15.0,30.0,34,0.00,,,0.00,0.000000,,2013-01-11 05:53:00,
2013-01-10 23:01:00,46.0,19.0,-100.00,South,187,14.0,24.0,33,0.00,,,0.00,0.000000,,2013-01-11 06:01:00,
2013-01-10 23:33:00,46.0,19.0,-100.00,South,187,14.0,24.0,33,0.00,,,0.00,0.000000,,2013-01-11 06:33:00,
2013-01-10 23:42:00,46.0,19.0,-100.00,South,187,14.0,24.0,33,0.00,,,0.00,0.000000,,2013-01-11 06:42:00,
2013-01-10 23:52:00,46.0,19.0,-100.00,South,187,14.0,24.0,33,0.00,,,0.00,0.000000,,2013-01-11 06:52:00,